24-hrs_data_Kizahashi_2014.csv,,,,,,,,,,,,,,,,,,,,,,,
TIMESTAMP,Wind_speed,Wind_dir,Wind_Spd_Max,Wind_Spd_TMx,Wind_dir,Air_Temp_Avg,Air_Temp_Max,Air_Temp_TMx,Air_Temp_Min,Air_Temp_TMn,Humidity_Avg,Humidity_Max,Humidity_TMx,Humidity_Min,Humidity_TMn,Sun_Wm2_Avg,PAR_Avg,UV_Wm2_Avg,Press_hPa_Avg,Press_hPa_Max,Press_hPa_TMx,Press_hPa_Min,Press_hPa_TMn
(yyyy/mm/dd hh:mm),(m/s),(degree),(m/s),(yyyy/mm/dd hh:mm),(degree),(��),(��),(yyyy/mm/dd hh:mm),(��),(yyyy/mm/dd hh:mm),(%),(%),(yyyy/mm/dd hh:mm),(%),(yyyy/mm/dd hh:mm),(W/m^2),(micro-mol/m^2/s),(W/m^2),(hPa),(hPa),(yyyy/mm/dd hh:mm),(hPa),(yyyy/mm/dd hh:mm)
,Avg,Avg,Max,TMx,SMM,Avg,Max,TMx,Min,TMn,Avg,Max,TMx,Min,TMn,Avg,Avg,Avg,Avg,Max,TMx,Min,TMn
2014/1/1 0:00,6.717,57.15,26.17,2013/12/31 14:33,97.6,3.235,4.908,2013/12/31 14:45,1.583,2013/12/31 7:20,41.85,55.21,2013/12/31 12:26,29.86,2013/12/31 4:47,99.247,1110.668,6.895944,986.0988,989.3693,2013/12/31 1:52,982.7845,2013/12/31 14:22
2014/1/2 0:00,5.771,63.28,25.09,2014/1/1 3:03,91.9,4.799,7.964,2014/1/1 15:47,1.822,2014/1/1 23:35,38.87,62.55,2014/1/1 22:22,30.03,2014/1/1 12:56,296.7075,1526.798,15.35796,985.6843,989.4935,2014/1/1 5:27,978.5535,2014/1/1 23:55
2014/1/3 0:00,3.467,30.48,11.37,2014/1/2 0:55,57.4,2.237,4.119,2014/1/2 9:47,-1.329,2014/1/2 4:17,49.17,70.11,2014/1/2 18:59,33.16,2014/1/2 8:59,272.6826,1612.734,12.68519,980.2691,986.7532,2014/1/3 0:00,977.4422,2014/1/2 6:41
2014/1/4 0:00,2.62,96.8,7.448,2014/1/3 16:14,217.2,3.06,5.487,2014/1/3 22:52,0.312,2014/1/3 3:24,56.92,78.95,2014/1/3 22:23,41.62,2014/1/3 5:38,141.7904,1511.276,8.946365,991.188,994.5446,2014/1/4 0:00,986.7532,2014/1/3 0:00
2014/1/5 0:00,3.604,59.18,9.9,2014/1/4 3:32,60.29,3.44,6.783,2014/1/4 8:56,-0.628,2014/1/4 23:28,55.79,91.4,2014/1/4 19:45,30.97,2014/1/4 8:52,374.9689,1393.951,16.96639,994.9896,996.5752,2014/1/4 9:08,993.3279,2014/1/4 20:03
2014/1/6 0:00,2.761,11.28,6.566,2014/1/5 10:40,13.88,-0.719,0.627,2014/1/5 16:12,-1.454,2014/1/5 2:40,87.4,94.7,2014/1/5 12:29,77.32,2014/1/5 17:04,143.2477,1285.301,7.959923,995.6483,997.6934,2014/1/5 23:45,993.5763,2014/1/5 0:02
2014/1/7 0:00,2.528,251.5,5.88,2014/1/6 14:43,239.8,-1.136,0.57,2014/1/6 13:19,-4.936,2014/1/6 23:52,87.7,97.2,2014/1/6 22:44,77.7,2014/1/6 10:44,273.2182,1140.674,15.19695,998.7738,999.433,2014/1/6 10:25,997.5691,2014/1/6 0:00
2014/1/8 0:00,2.52,255,5.488,2014/1/7 12:52,234.5,-1.647,1.876,2014/1/7 15:08,-6.688,2014/1/7 3:24,77.02,98,2014/1/7 3:27,58.36,2014/1/7 7:07,393.9447,1173.789,17.48659,995.1058,998.0661,2014/1/7 0:00,992.7137,2014/1/7 23:22
2014/1/9 0:00,2.027,329.3,5.586,2014/1/8 9:34,231.7,-1.423,2.044,2014/1/8 15:22,-5.556,2014/1/8 3:36,81.9,97.3,2014/1/8 23:39,63.63,2014/1/8 13:03,385.0833,1155.936,17.53537,993.682,995.1747,2014/1/9 0:00,992.3513,2014/1/8 9:25
2014/1/10 0:00,2.385,262.5,5.978,2014/1/9 17:08,229.2,-2.559,0.667,2014/1/9 13:39,-4.405,2014/1/9 5:18,91.5,98.3,2014/1/9 23:51,75.05,2014/1/9 13:39,366.0609,1264.959,16.88083,987.4344,995.3224,2014/1/9 0:26,981.3628,2014/1/9 21:18
2014/1/11 0:00,3.056,328.5,11.86,2014/1/10 5:44,83.3,1.936,7.654,2014/1/10 12:30,-5.265,2014/1/10 4:03,62.98,98.6,2014/1/10 0:40,33.2,2014/1/10 10:04,375.18,1230.378,16.69164,986.4351,992.0865,2014/1/10 23:44,982.4118,2014/1/10 0:00
2014/1/12 0:00,2.65,261.1,8.04,2014/1/11 0:43,222.4,0.3,3.076,2014/1/11 13:54,-1.783,2014/1/11 6:01,83.9,98.2,2014/1/11 22:58,67.96,2014/1/11 16:02,258.8576,1733.849,13.99028,993.4207,994.951,2014/1/11 23:59,992.0865,2014/1/11 0:00
2014/1/13 0:00,2.568,258,6.762,2014/1/12 15:53,277,-0.078,3.66,2014/1/12 14:52,-2.198,2014/1/12 3:33,83.6,97.6,2014/1/12 1:59,61.09,2014/1/12 14:51,313.8263,1444.142,15.04018,996.699,998.7844,2014/1/12 23:59,994.8268,2014/1/12 0:04
2014/1/14 0:00,2.927,235.7,7.938,2014/1/13 23:33,164.6,0.735,5.075,2014/1/13 19:13,-2.566,2014/1/13 7:01,75.45,93.9,2014/1/13 2:26,47.41,2014/1/13 14:07,364.2282,1137.541,16.55698,999.1412,1000.302,2014/1/13 9:59,997.3011,2014/1/13 19:11
2014/1/15 0:00,2.589,251.4,6.958,2014/1/14 14:59,226.7,4.223,7.108,2014/1/14 14:18,0.584,2014/1/14 5:14,46.97,70.28,2014/1/14 0:04,33.08,2014/1/14 19:27,369.0877,1088.831,16.40687,992.0802,998.2966,2014/1/14 0:02,986.996,2014/1/14 21:49
2014/1/16 0:00,2.864,1.025,8.72,2014/1/15 6:32,71.77,3.149,6.32,2014/1/15 12:04,-1.574,2014/1/15 3:54,52.54,80.4,2014/1/15 23:16,32.99,2014/1/15 10:41,357.002,1176.177,16.08937,991.2394,994.3214,2014/1/15 23:26,987.1201,2014/1/15 0:00
2014/1/17 0:00,3.1,351.8,8.62,2014/1/16 3:12,61.24,2.052,4.447,2014/1/16 10:37,-1.414,2014/1/16 23:50,49.36,80.4,2014/1/16 22:22,33.23,2014/1/16 10:40,364.3287,1079.344,15.9622,996.4022,997.3207,2014/1/16 10:23,994.3214,2014/1/16 0:00
2014/1/18 0:00,2.638,298.3,6.174,2014/1/17 11:25,247.9,-0.154,3.395,2014/1/17 15:57,-3.654,2014/1/17 23:52,60.22,87,2014/1/17 23:54,35.61,2014/1/17 15:58,368.2838,1050.455,15.99887,995.6979,997.5691,2014/1/17 5:30,991.8911,2014/1/17 23:47
2014/1/19 0:00,1.873,4.344,5.488,2014/1/18 13:34,271.3,-1.199,1.61,2014/1/18 17:45,-5.435,2014/1/18 2:42,72.16,93.9,2014/1/18 2:55,50.19,2014/1/18 12:39,367.6569,1362.102,15.41416,988.5417,991.9365,2014/1/18 0:00,987.2461,2014/1/18 17:48
2014/1/20 0:00,1.804,287.6,5.684,2014/1/19 11:45,38.29,-1.092,1.087,2014/1/19 12:15,-3.053,2014/1/19 2:32,77.33,87,2014/1/19 23:11,56.79,2014/1/19 11:23,140.876,1099.086,7.218809,993.5845,996.5752,2014/1/19 23:33,989.1667,2014/1/19 0:00
2014/1/21 0:00,2.002,240.2,5.586,2014/1/20 11:07,225,-1.117,0.048,2014/1/20 13:25,-2.319,2014/1/20 4:33,80.3,96.2,2014/1/20 4:07,64.91,2014/1/20 19:18,164.7762,1300.057,8.864161,995.6277,996.9479,2014/1/20 2:59,993.8422,2014/1/20 23:33
2014/1/22 0:00,2.5,243.2,5.39,2014/1/21 10:30,241.7,-1.24,0.375,2014/1/21 12:34,-2.319,2014/1/21 3:36,79.87,91.5,2014/1/21 21:24,67.52,2014/1/21 0:02,169.2361,1231.352,9.365565,993.4987,994.3391,2014/1/21 23:33,993.0967,2014/1/21 11:00
2014/1/23 0:00,2.553,359.2,7.154,2014/1/22 11:53,238.4,-0.348,2.83,2014/1/22 14:01,-2.65,2014/1/22 4:10,60.42,86.9,2014/1/22 2:30,41.47,2014/1/22 7:00,308.953,1238.761,13.43683,995.003,995.83,2014/1/22 11:51,994.2149,2014/1/22 0:00
2014/1/24 0:00,3.596,95.2,10.29,2014/1/23 20:53,105.3,1.375,4.367,2014/1/23 17:49,-2.115,2014/1/23 2:37,47.02,75.54,2014/1/23 13:33,33.57,2014/1/23 7:54,124.2737,995.7391,7.126733,991.7996,994.3389,2014/1/23 0:14,990.4874,2014/1/23 17:47
2014/1/25 0:00,3.218,279,11.47,2014/1/24 4:21,64.61,2.108,4.954,2014/1/24 11:03,-0.412,2014/1/24 22:55,54.77,88.8,2014/1/24 22:01,33.06,2014/1/24 10:52,158.8633,1276.216,8.284545,990.8673,992.9722,2014/1/24 3:07,988.2511,2014/1/24 23:42
2014/1/26 0:00,2.919,256,9.21,2014/1/25 2:35,213.5,1.54,3.103,2014/1/25 17:14,0.012,2014/1/25 23:56,48.64,81.9,2014/1/25 23:54,25.08,2014/1/25 4:17,225.9445,1427.963,10.39859,989.0922,991.7299,2014/1/25 23:34,987.2572,2014/1/25 5:34
2014/1/27 0:00,2.516,245.2,6.076,2014/1/26 0:20,98.1,0.701,2.248,2014/1/26 12:47,-0.43,2014/1/26 7:06,65.36,85.7,2014/1/26 0:25,52.58,2014/1/26 3:29,175.7536,1568.362,9.273452,990.9767,991.8541,2014/1/26 2:25,989.245,2014/1/26 23:39
2014/1/28 0:00,2.015,242.6,4.704,2014/1/27 23:20,222.1,-0.498,0.835,2014/1/27 14:40,-1.571,2014/1/27 2:37,70.06,85.9,2014/1/27 0:34,49.18,2014/1/27 14:09,124.3131,1221.351,7.46726,985.579,989.245,2014/1/27 0:00,982.4118,2014/1/27 23:37
2014/1/29 0:00,2.2,352.8,6.566,2014/1/28 13:54,0,-0.377,1.502,2014/1/28 10:03,-1.903,2014/1/28 4:28,60.39,75.97,2014/1/28 22:44,39.64,2014/1/28 10:04,191.8535,1529.906,9.80164,984.7373,989.4938,2014/1/28 23:49,981.7906,2014/1/28 2:27
2014/1/30 0:00,2.083,5.777,6.174,2014/1/29 10:38,8.14,-1.614,1.459,2014/1/29 14:46,-5.101,2014/1/29 22:10,78.87,97.8,2014/1/29 22:53,61.88,2014/1/29 14:47,257.2187,883.012,11.9841,990.8091,991.6168,2014/1/29 16:47,989.4938,2014/1/29 0:00
2014/1/31 0:00,2.823,42.98,7.056,2014/1/30 12:23,14.36,-3.436,-1.85,2014/1/30 11:55,-5.142,2014/1/30 7:13,86.4,96.6,2014/1/30 5:17,72.02,2014/1/30 11:56,218.2757,132.7247,10.32901,990.9627,991.9568,2014/1/31 0:00,990.239,2014/1/30 5:40
2014/2/1 0:00,1.686,294.6,6.272,2014/1/31 15:00,3.351,-2.683,-1.307,2014/1/31 13:43,-4.561,2014/1/31 0:19,83.5,94.5,2014/1/31 0:14,72.01,2014/1/31 15:46,141.0599,101.086,7.578764,992.9563,993.9664,2014/1/31 23:57,991.9098,2014/1/31 0:04
2014/2/2 0:00,2.251,262.6,6.86,2014/2/1 21:56,14.84,-2.753,-1.034,2014/2/1 14:42,-4.835,2014/2/1 5:38,90.9,97.5,2014/2/1 20:29,83.2,2014/2/1 9:11,124.3018,88.15291,6.820433,993.6314,994.2236,2014/2/1 2:38,992.6587,2014/2/1 21:30
2014/2/3 0:00,2.468,335.6,15.09,2014/2/2 23:38,100.5,-1.777,0.213,2014/2/2 18:42,-3.839,2014/2/2 3:35,77.68,97.3,2014/2/2 3:44,28.25,2014/2/2 23:41,149.6367,112.0312,7.76188,992.5023,993.8507,2014/2/2 11:12,988.7483,2014/2/2 23:56
2014/2/4 0:00,12.61,87,26.26,2014/2/3 22:11,88.6,0.768,3.249,2014/2/3 15:39,-2.398,2014/2/3 3:22,37.99,50.94,2014/2/3 10:10,23.4,2014/2/3 2:23,101.3136,80.60966,6.021627,980.9898,988.8726,2014/2/3 0:00,977.194,2014/2/3 19:26
2014/2/5 0:00,9.5,65.18,23.62,2014/2/4 0:17,107.7,2.036,4.425,2014/2/4 13:47,0.503,2014/2/4 1:26,44.61,55.59,2014/2/4 7:57,36.47,2014/2/4 10:05,96.8198,79.60833,5.902244,980.6541,985.8908,2014/2/4 23:59,977.9394,2014/2/4 0:08
2014/2/6 0:00,4.676,57.49,16.76,2014/2/5 6:38,104.8,2.784,5.951,2014/2/5 13:39,0.683,2014/2/5 10:25,41.82,61.61,2014/2/5 11:44,28.92,2014/2/5 9:37,217.2986,143.7747,9.800508,987.0703,987.9004,2014/2/5 23:42,985.7665,2014/2/5 0:00
2014/2/7 0:00,3.389,240.7,14.7,2014/2/6 1:22,49.77,0.244,2.666,2014/2/6 0:45,-1.22,2014/2/6 23:54,79.96,93.9,2014/2/6 20:46,40.3,2014/2/6 0:46,119.9565,92.13944,6.495228,988.3398,989.742,2014/2/6 23:58,987.2416,2014/2/6 0:29
2014/2/8 0:00,1.727,0.78,4.9,2014/2/7 17:19,326,-1.692,-0.837,2014/2/7 0:17,-2.61,2014/2/7 6:24,88.6,97.4,2014/2/7 6:40,79.9,2014/2/7 19:37,62.30086,50.43026,4.027304,993.1675,995.0936,2014/2/7 23:14,989.742,2014/2/7 0:00
2014/2/9 0:00,2.495,242.3,8.62,2014/2/8 10:21,67.03,-1.11,1.475,2014/2/8 22:37,-3.188,2014/2/8 4:52,74.98,96.7,2014/2/8 2:59,34.09,2014/2/8 11:15,234.8958,150.1602,10.77892,991.6335,994.845,2014/2/8 0:00,986.3878,2014/2/8 23:36
2014/2/10 0:00,2.34,38.06,8.04,2014/2/9 12:29,79.46,1.358,3.87,2014/2/9 14:34,-1.407,2014/2/9 0:39,57.16,88.1,2014/2/9 0:38,32.09,2014/2/9 3:59,129.0333,100.0222,7.279321,983.4802,991.8544,2014/2/9 23:54,979.4303,2014/2/9 8:23
2014/2/11 0:00,3.371,59.47,10.29,2014/2/10 4:38,49.78,-0.013,1.543,2014/2/10 13:13,-2.113,2014/2/10 23:51,66.85,90.7,2014/2/10 1:06,42.27,2014/2/10 22:50,73.49941,60.67155,4.538574,998.6412,1001.421,2014/2/10 14:53,991.8544,2014/2/10 0:00
2014/2/12 0:00,2.67,102.7,7.448,2014/2/11 14:48,222.5,-0.241,1.845,2014/2/11 8:35,-2.818,2014/2/11 23:53,59.58,93.6,2014/2/11 22:58,33.24,2014/2/11 8:28,155.4392,115.5586,8.499544,996.2769,999.9299,2014/2/11 0:00,993.7179,2014/2/11 20:50
2014/2/13 0:00,2.559,260.5,7.056,2014/2/12 6:12,53.62,-1.371,0.6,2014/2/12 10:11,-3.274,2014/2/12 3:55,66.14,95.5,2014/2/12 1:04,41.94,2014/2/12 10:13,221.3112,148.1528,10.49684,992.0582,994.3391,2014/2/12 0:00,990.7362,2014/2/12 18:35
2014/2/14 0:00,2.535,225.8,7.84,2014/2/13 21:23,65.1,-1.968,-0.203,2014/2/13 18:08,-3.979,2014/2/13 4:36,68.34,86,2014/2/13 4:18,51.11,2014/2/13 21:05,97.58734,78.54184,6.102749,992.2289,993.4779,2014/2/13 12:04,990.4888,2014/2/13 23:56
2014/2/15 0:00,3.167,76.7,9.02,2014/2/14 1:40,47.88,-0.92,0.633,2014/2/14 10:06,-2.443,2014/2/14 2:15,49.91,69.69,2014/2/14 1:04,33.41,2014/2/14 9:55,181.254,120.8572,8.526207,987.3693,990.6184,2014/2/14 0:05,985.1454,2014/2/14 18:40
2014/2/16 0:00,2.93,56.27,12.15,2014/2/15 23:22,78.01,0.154,1.791,2014/2/15 16:53,-1.446,2014/2/15 23:57,52.11,67.16,2014/2/15 9:06,33.57,2014/2/15 22:33,112.5963,90.55482,6.825518,984.2344,987.0138,2014/2/15 5:38,980.7969,2014/2/15 23:22
2014/2/17 0:00,3.432,28.57,11.47,2014/2/16 0:38,60.31,-2.426,0.835,2014/2/16 15:43,-5.404,2014/2/16 6:10,43.46,70.78,2014/2/16 21:05,31.35,2014/2/16 15:43,252.436,151.3265,10.54679,979.2736,980.9211,2014/2/16 0:00,978.0669,2014/2/16 11:41
2014/2/18 0:00,2.587,294.7,6.076,2014/2/17 15:22,258,-2.21,-0.122,2014/2/17 14:34,-5.241,2014/2/17 4:00,47.68,72.13,2014/2/17 19:50,34.38,2014/2/17 14:12,246.467,147.6961,10.28833,984.6595,986.8847,2014/2/17 22:21,980.7969,2014/2/17 0:00
2014/2/19 0:00,2.838,285.1,5.978,2014/2/18 0:05,55.05,-1.772,0.84,2014/2/18 16:21,-5.433,2014/2/18 21:28,49.85,81.4,2014/2/18 21:18,38.02,2014/2/18 14:45,222.4498,146.0511,9.906614,986.7495,988.3853,2014/2/18 9:23,983.406,2014/2/18 23:53
2014/2/20 0:00,2.689,28.14,7.546,2014/2/19 12:51,91,-6.183,-3.736,2014/2/19 0:03,-9.1,2014/2/19 22:00,65.84,86.6,2014/2/19 21:42,43.96,2014/2/19 3:12,244.8018,144.5882,10.08274,978.5887,983.406,2014/2/19 0:00,975.9589,2014/2/19 20:16
2014/2/21 0:00,3.094,234.4,10.68,2014/2/20 22:15,94.8,-3.002,1.132,2014/2/20 15:59,-9.33,2014/2/20 2:31,67.29,88.2,2014/2/20 2:25,50.02,2014/2/20 14:32,82.80676,66.56274,4.969202,978.3992,980.677,2014/2/20 20:38,976.2541,2014/2/20 0:15
2014/2/22 0:00,9.07,69.32,23.62,2014/2/21 22:45,74.67,2.308,3.619,2014/2/21 15:00,-0.363,2014/2/21 0:34,42.75,66.45,2014/2/21 0:37,32.8,2014/2/22 0:00,43.06116,41.50191,3.001203,974.3835,980.3041,2014/2/21 0:00,969.7395,2014/2/21 19:43
2014/2/23 0:00,13.38,75.87,26.56,2014/2/22 17:18,79.46,1.795,3.039,2014/2/22 13:56,0.643,2014/2/22 22:49,41.45,54.21,2014/2/22 18:27,30.91,2014/2/22 2:39,50.52796,47.41455,3.582632,970.7128,976.4485,2014/2/22 23:37,967.7517,2014/2/22 15:57
2014/2/24 0:00,4.569,53.44,20.48,2014/2/23 2:13,67.49,0.559,2.753,2014/2/23 18:15,-1.451,2014/2/23 23:46,48.47,70.73,2014/2/23 12:28,32.73,2014/2/23 4:39,114.676,87.98202,6.209565,975.9848,977.1512,2014/2/23 5:48,974.9576,2014/2/23 17:28
2014/2/25 0:00,2.989,50,9.41,2014/2/24 0:25,53.61,-1.564,-0.452,2014/2/24 15:35,-2.775,2014/2/24 23:58,53.72,81.1,2014/2/24 20:18,37.42,2014/2/24 23:53,84.40214,66.90996,4.836995,979.4593,981.6711,2014/2/24 23:56,976.8212,2014/2/24 0:00
2014/2/26 0:00,4.12,63.89,9.02,2014/2/25 23:43,80.4,-1.734,1.694,2014/2/25 15:56,-3.936,2014/2/25 6:08,40.14,58.63,2014/2/25 14:16,32.49,2014/2/25 16:29,214.1922,131.0275,8.472239,981.6591,983.2817,2014/2/26 0:00,980.6727,2014/2/25 15:51
2014/2/27 0:00,5.261,61.07,12.15,2014/2/26 23:54,65.11,-3.891,-0.924,2014/2/26 15:30,-6.633,2014/2/26 23:48,36.74,63.45,2014/2/26 4:39,28.22,2014/2/26 10:20,210.0629,125.8401,8.340111,985.3511,986.6362,2014/2/26 20:04,983.1575,2014/2/26 0:02
2014/2/28 0:00,15.59,74.03,37.14,2014/2/27 15:14,88.6,-3.336,-0.616,2014/2/27 20:00,-7.255,2014/2/27 1:39,37.53,50.66,2014/2/27 4:44,23.81,2014/2/27 6:28,39.64021,34.7772,2.596831,973.1939,985.0267,2014/2/27 0:02,966.5081,2014/2/27 17:17
2014/3/1 0:00,10.67,72.32,28.13,2014/2/28 2:54,78.04,-0.576,1.88,2014/2/28 13:56,-2.565,2014/2/28 5:06,36,50.54,2014/2/28 14:23,28.86,2014/2/28 13:56,83.11648,64.38538,4.232025,973.2204,979.0612,2014/2/28 23:56,968.1243,2014/2/28 1:11
2014/3/2 0:00,3.82,45.5,9.31,2014/3/1 5:08,75.64,-3.22,-0.739,2014/3/1 13:17,-5.762,2014/3/1 7:05,45.31,64.57,2014/3/1 7:06,32.43,2014/3/1 0:00,193.044,117.2427,7.425309,984.132,988.7552,2014/3/1 23:47,979.0612,2014/3/1 0:00
2014/3/3 0:00,2.658,30.72,7.35,2014/3/2 0:22,69.9,-4.971,-0.949,2014/3/2 16:58,-6.92,2014/3/2 21:32,52.44,84.2,2014/3/2 21:35,35.62,2014/3/2 9:51,165.5186,108.2663,6.908034,989.0291,989.881,2014/3/2 7:29,987.9962,2014/3/2 19:06
2014/3/4 0:00,1.993,314.7,6.86,2014/3/3 23:14,222.2,-6.696,-5.637,2014/3/3 16:05,-7.84,2014/3/3 7:05,63.63,79.07,2014/3/3 10:22,47.74,2014/3/3 0:46,43.9492,35.06677,2.656083,988.1799,988.7789,2014/3/3 10:40,987.3947,2014/3/3 20:34
2014/3/5 0:00,2.081,229.1,5.88,2014/3/4 0:01,161.4,-5.482,-3.534,2014/3/4 15:15,-7.087,2014/3/4 0:04,79.51,92.3,2014/3/4 4:24,63.31,2014/3/4 18:29,91.26649,68.13626,5.347107,990.631,994.7297,2014/3/4 23:53,987.5189,2014/3/4 0:54
2014/3/6 0:00,2.222,50.4,8.33,2014/3/5 16:20,59.37,-4.666,-0.451,2014/3/5 15:19,-7.498,2014/3/5 0:30,50.42,80.8,2014/3/5 0:32,27.88,2014/3/5 23:07,129.4718,92.94189,6.160844,991.5417,996.3516,2014/3/5 6:55,981.1783,2014/3/5 23:57
2014/3/7 0:00,4.195,169,17.84,2014/3/6 11:01,101.5,-3.094,0.097,2014/3/6 11:34,-9.66,2014/3/6 3:16,60.09,93.6,2014/3/6 17:32,29.24,2014/3/6 0:12,40.11912,33.80843,2.296478,975.0952,981.1783,2014/3/6 0:00,972.5999,2014/3/6 11:05
2014/3/8 0:00,1.982,147.2,5.488,2014/3/7 9:39,63.22,-2.478,-1.074,2014/3/7 11:34,-4.144,2014/3/7 23:59,61.99,81.7,2014/3/8 0:00,45.23,2014/3/7 2:54,78.35924,58.89271,4.423604,979.3859,985.612,2014/3/7 23:54,974.962,2014/3/7 0:02
2014/3/9 0:00,2.335,42.27,6.37,2014/3/8 23:09,65.11,-2.859,-0.499,2014/3/8 11:57,-5.432,2014/3/8 6:45,59.23,82.7,2014/3/8 0:05,43.43,2014/3/8 1:07,108.3459,78.5542,5.31422,989.5983,991.241,2014/3/8 15:45,985.5771,2014/3/8 0:03
2014/3/10 0:00,2.428,43.71,6.664,2014/3/9 16:17,226.5,-3.224,-0.5,2014/3/9 12:55,-5.327,2014/3/9 5:26,57.11,81.1,2014/3/9 15:16,43.4,2014/3/9 3:32,95.2211,67.65665,4.690785,984.6644,990.371,2014/3/9 0:00,981.5469,2014/3/9 18:11
2014/3/11 0:00,3.83,68.27,9.41,2014/3/10 19:16,59.37,-2.751,-0.4,2014/3/10 12:32,-4.391,2014/3/10 6:12,55.4,74.75,2014/3/10 1:17,44.57,2014/3/10 20:46,76.15453,55.24166,3.983163,983.9833,986.5698,2014/3/11 0:00,982.0441,2014/3/10 0:00
2014/3/12 0:00,3.406,54.09,9.7,2014/3/11 1:33,89,-4.735,-2.069,2014/3/11 13:48,-8.62,2014/3/11 20:33,56.57,84.1,2014/3/11 20:14,35.68,2014/3/11 13:07,113.9904,84.98177,5.260083,989.7161,992.3674,2014/3/11 23:56,986.5511,2014/3/11 0:02
2014/3/13 0:00,2.674,244.2,7.252,2014/3/12 16:28,237.5,-6.474,-4.311,2014/3/12 17:52,-10.19,2014/3/12 1:43,52.38,84.5,2014/3/12 23:01,29.54,2014/3/12 4:01,110.8124,74.05885,4.881558,993.5374,994.4899,2014/3/12 10:54,992.3674,2014/3/12 0:00
2014/3/14 0:00,3.185,39.42,7.938,2014/3/13 9:31,27.3,-5.577,-3.127,2014/3/13 15:57,-8.7,2014/3/13 23:58,59.73,92.8,2014/3/13 5:07,34.84,2014/3/13 15:58,109.4101,77.42816,4.915801,990.2527,992.8649,2014/3/13 0:12,988.5135,2014/3/13 16:53
2014/3/15 0:00,3.153,52.38,8.53,2014/3/14 2:51,54.13,-6.611,-3.044,2014/3/14 15:45,-9.59,2014/3/14 5:39,49.79,73.19,2014/3/14 17:28,36.94,2014/3/14 2:13,120.6777,81.924,5.059113,990.6331,993.3622,2014/3/14 23:32,988.8934,2014/3/14 4:59
2014/3/16 0:00,2.291,19.91,6.174,2014/3/15 1:18,67.53,-7.142,-5.353,2014/3/15 12:27,-8.87,2014/3/15 23:02,56.44,75.12,2014/3/15 17:15,40.38,2014/3/15 12:30,76.7494,51.23724,3.749031,995.3918,998.069,2014/3/15 23:56,993.3622,2014/3/15 0:00
2014/3/17 0:00,1.328,292.7,5.782,2014/3/16 0:07,217.9,-7.232,-4.486,2014/3/16 14:34,-12.1,2014/3/16 6:34,65.11,86.5,2014/3/16 6:46,39.5,2014/3/16 23:23,92.1883,61.57046,4.215519,1000.662,1001.703,2014/3/16 14:38,998.0359,2014/3/16 0:02
2014/3/18 0:00,2.043,44.68,6.272,2014/3/17 20:21,79.01,-6.2,-2.273,2014/3/17 15:07,-8.5,2014/3/17 6:54,49.56,73.01,2014/3/17 17:34,28.06,2014/3/17 15:09,116.7509,78.64021,4.696643,1000.153,1001.527,2014/3/17 2:22,997.7136,2014/3/17 23:33
2014/3/19 0:00,2.921,47.72,11.56,2014/3/18 23:26,78.54,-5.69,-1.764,2014/3/18 14:48,-9.17,2014/3/18 22:06,40.2,63.82,2014/3/18 4:20,19.12,2014/3/18 23:39,100.6723,74.38168,4.227309,993.5742,997.8379,2014/3/18 0:00,988.7621,2014/3/18 23:48
2014/3/20 0:00,4.644,54.83,12.15,2014/3/19 21:34,63.23,-7.699,-4.338,2014/3/19 15:15,-11.36,2014/3/19 7:10,27.66,51.99,2014/3/19 8:42,17.65,2014/3/19 11:01,112.9866,69.03436,4.313381,984.4259,989.0107,2014/3/19 0:00,981.3071,2014/3/19 23:54
2014/3/21 0:00,4.919,67.88,15.58,2014/3/20 16:05,105.4,-4.296,-1.608,2014/3/20 14:26,-8.14,2014/3/20 1:02,38.9,72.92,2014/3/20 23:59,24.73,2014/3/20 0:05,34.36531,26.82707,1.996673,977.132,981.3071,2014/3/20 0:00,975.2131,2014/3/20 12:08
2014/3/22 0:00,2.062,231.3,10.98,2014/3/21 0:35,133.1,-5.774,-3.186,2014/3/21 0:41,-8.81,2014/3/21 19:46,85.6,95,2014/3/21 4:47,53.32,2014/3/21 0:38,53.60289,44.32101,3.594211,982.6083,986.6749,2014/3/21 23:57,978.0703,2014/3/21 0:05
2014/3/23 0:00,2.099,178.3,5.586,2014/3/22 1:28,69.46,-6.528,-3.519,2014/3/22 15:39,-9.69,2014/3/22 4:31,63.52,86,2014/3/22 22:39,48.07,2014/3/22 15:22,67.84103,48.63719,3.929558,989.0376,990.5101,2014/3/22 22:30,986.6559,2014/3/22 0:11
2014/3/24 0:00,1.831,258.2,4.802,2014/3/23 22:50,257.3,-11.65,-8.33,2014/3/23 13:11,-18.51,2014/3/23 22:15,81.1,91,2014/3/23 23:25,68.15,2014/3/23 15:35,84.08154,65.48885,4.340977,990.7016,991.2,2014/3/23 14:43,990.1446,2014/3/23 23:54
2014/3/25 0:00,6.083,99.1,19.89,2014/3/24 13:38,87.7,-10.19,-3.307,2014/3/24 21:02,-19.13,2014/3/24 2:00,68.61,90.4,2014/3/24 2:14,41.12,2014/3/24 12:09,33.07844,27.95512,2.09207,976.3761,990.1446,2014/3/24 0:00,964.3922,2014/3/24 22:50
2014/3/26 0:00,4.664,69.84,11.17,2014/3/25 0:51,95.3,-6.064,-4.349,2014/3/25 11:51,-8.79,2014/3/25 23:58,60.43,91.8,2014/3/25 16:27,46.52,2014/3/25 10:53,48.29631,35.81405,2.623163,968.6832,979.1931,2014/3/26 0:00,964.3951,2014/3/25 6:41
2014/3/27 0:00,5.637,63.77,16.56,2014/3/26 22:09,43.6,-8.92,-6.673,2014/3/26 23:59,-9.82,2014/3/26 16:54,48.5,80.7,2014/3/26 1:07,31.04,2014/3/26 15:33,52.96677,38.83768,2.882289,987.2723,990.5272,2014/3/26 12:44,979.1931,2014/3/26 0:00
2014/3/28 0:00,11.57,76.53,30.38,2014/3/27 9:52,87.7,-4.098,-1.244,2014/3/27 16:08,-8.33,2014/3/27 0:56,54.06,82,2014/3/27 3:42,42.27,2014/3/27 16:09,15.96476,14.5474,1.032418,979.5599,987.9492,2014/3/27 0:04,974.7159,2014/3/27 14:13
2014/3/29 0:00,3.259,73.46,14.8,2014/3/28 0:07,88.1,-5.195,-3.314,2014/3/28 1:04,-8.12,2014/3/28 23:53,57.61,81.9,2014/3/28 14:47,42.9,2014/3/28 21:25,41.63432,31.25886,2.249356,986.1773,989.7568,2014/3/28 23:44,979.8109,2014/3/28 0:03
2014/3/30 0:00,8.7,78.6,31.07,2014/3/29 18:25,103.5,-4.839,0.22,2014/3/29 22:06,-8.81,2014/3/29 3:30,50.97,93.6,2014/3/29 15:38,34.99,2014/3/29 11:51,40.77694,30.34566,2.070905,979.7831,989.8053,2014/3/29 0:16,963.0271,2014/3/29 23:59
2014/3/31 0:00,9.91,66.25,34.69,2014/3/30 1:10,83.8,0.107,2.533,2014/3/30 11:22,-4.434,2014/3/30 23:59,57.29,93.7,2014/3/30 23:59,42.68,2014/3/30 17:49,57.06762,41.85141,2.271718,963.6904,968.3707,2014/3/30 23:56,956.9352,2014/3/30 3:38
2014/4/1 0:00,7.744,68.16,19.01,2014/3/31 23:49,71.36,-2.045,0.045,2014/3/31 12:12,-4.849,2014/3/31 2:12,64.27,97.1,2014/3/31 2:29,45.87,2014/3/31 23:58,49.66657,37.16424,2.284639,979.4955,986.8972,2014/3/31 23:50,968.3593,2014/3/31 0:00
2014/4/2 0:00,3.951,57.96,19.89,2014/4/1 0:40,71.83,-6.767,-1.621,2014/4/1 1:48,-12.43,2014/4/1 23:52,56.93,77.36,2014/4/1 17:12,33.29,2014/4/1 18:41,73.55045,52.93188,2.800878,986.9396,988.6377,2014/4/1 7:07,985.0323,2014/4/1 18:05
2014/4/3 0:00,2.565,237.7,7.742,2014/4/2 21:01,36.9,-11.57,-7.959,2014/4/2 22:01,-16.82,2014/4/2 6:24,65.48,77.62,2014/4/2 18:06,46.73,2014/4/2 4:05,31.02188,21.30614,1.696775,987.5317,988.1541,2014/4/2 11:18,985.4171,2014/4/2 23:54
2014/4/4 0:00,9.25,82.2,27.93,2014/4/3 12:58,104.4,-3.772,-0.941,2014/4/3 14:26,-9.53,2014/4/3 1:37,50.08,89.8,2014/4/4 0:00,38.49,2014/4/3 17:44,24.84489,18.9089,1.406015,976.6391,985.4171,2014/4/3 0:00,971.4824,2014/4/3 16:23
2014/4/5 0:00,1.882,207.8,5.978,2014/4/4 0:17,224.1,-5.478,-3.189,2014/4/4 0:45,-7.958,2014/4/4 23:39,78.56,96.6,2014/4/4 5:06,53.8,2014/4/4 20:48,33.5741,26.19998,2.19854,978.9893,984.7217,2014/4/4 23:56,973.719,2014/4/4 0:00
2014/4/6 0:00,1.804,25.71,5.586,2014/4/5 0:15,75.68,-9.84,-6.883,2014/4/5 0:00,-13.55,2014/4/5 22:57,80.8,92,2014/4/5 20:52,62.07,2014/4/5 0:10,37.756,27.21118,2.258074,985.976,986.5305,2014/4/5 17:39,984.6814,2014/4/5 0:10
2014/4/7 0:00,1.75,243.8,5.978,2014/4/6 6:36,223.8,-13.52,-11.69,2014/4/6 15:54,-17.03,2014/4/6 8:15,87.5,91.1,2014/4/6 18:24,80.9,2014/4/6 10:35,38.89258,29.64343,2.135498,989.7397,993.1304,2014/4/6 23:00,986.4061,2014/4/6 0:00
2014/4/8 0:00,8.1,75.22,25.38,2014/4/7 14:44,92,-9.1,-4.444,2014/4/7 21:54,-15.95,2014/4/7 3:06,74.44,93,2014/4/7 13:52,51.87,2014/4/7 10:41,14.28461,12.17808,0.9358025,983.8807,993.8768,2014/4/7 1:33,975.7133,2014/4/7 18:24
2014/4/9 0:00,3.529,68.8,15.88,2014/4/8 1:10,73.3,-6.896,-4.183,2014/4/8 2:36,-12.64,2014/4/8 23:59,62.63,82,2014/4/8 20:19,40.25,2014/4/8 11:33,31.45246,21.83649,1.75421,979.6808,986.6551,2014/4/8 23:57,976.8336,2014/4/8 2:00